一网星座-0600星 (ONEWEB-0600 )

导读

ONEWEB-0600是英国OneWeb公司低轨宽带互联网星座中的卫星,于2022年12月8日发射入轨,属于一网星座组网卫星。一网星座计划部署超600颗低轨卫星,运行在1200公里高度的近地轨道,使用Ku波段提供全球宽带互联网服务,ONEWEB-0600的成功入轨进一步推进了一网全球卫星互联网的部署进程,助力实现全球无缝网络覆盖。

Basic Information
目录编号:
54664
目录名称:
ONEWEB-0600
国际标识:
2022-166Y
轨道中心:
EARTH
卫星名称:
一网星座-0600星
卫星全名:
一网星座-0600星 (ONEWEB-0600 )
卫星状态:
在轨 (已飞行1374 天)
发射日期:
2022-12-08 UTC
国别 :
英国 (GB)
星等 :
--
This satellite is enrolled in the Space Conjunction Data Service (SCDS) and the current flight risk assessment level is: No High Risk
Orbit Information
数据来源 国际轨道数据 AOE轨道数据
星历时间 2026-09-11T23:19:49+0800
16小时前
查看轨道信息
2026-09-11T10:00:00+0800
1天前
查看轨道信息
半长轴 7555.891km 7555.925km
偏心率 0.0002275 0.0002734
轨道倾角 87.926° 87.919°
近地点辐角 80.805° 110.001°
升交点赤经 226.768° 226.875°
平近点角 279.334° 128.564°
近地点 1176.035km 1175.722km
远地点 1179.473km 1179.854km
周期 108.940分钟 108.941分钟
每日圈数 13.21826 13.21817
Detailed Information
平衡模式:
三轴稳定
覆盖范围:
全球
运营商:
一网卫星公司
运营商所在国:
英国
制造商(研发单位):
一网卫星公司
制造商所在国:
英国
使用方式:
暂无
Satellite Introduction
OneWeb卫星网络由648颗重约125公斤的微型卫星组成,运行在1200公里的轨道上。 每颗卫星都能够提供至少每秒8千兆位的吞吐量,以使用其高吞吐量的Ku频段有效载荷为家庭和移动平台提供互联网接入。该卫星仍在工作。
2D Orbit Map
3D Orbit Map
Orbit Altitude Analysis Chart
Orbit Inclination Analysis Chart
Orbit Comprehensive Analysis Chart
View Comprehensive Chart
Conjunction Data List
Event ID Objects TCA Miss Dist (km) Collision Risk Probability Collision Risk Index (CRI) Action
CDM_260909-010102-149905-466426
2026-09-09T
01:01:29+0000
2.517 km
极远距离
1.679287E-6 低风险 0.4
Miss Distance Evolution Trend with All Objects
Collision Probability Evolution Trend with All Objects